Flag for Ukraine Weather past 2 weeks in L'viv, Ukraine

Now
50 °F

Clear.


Feels Like: 50 °F
Forecast: 46 / 73 °F
Wind: No wind

Location: L'Viv Airport

Current Time: May 29, 2015 at 11:58:28 PM

Latest Report: May 29, 2015 at 11:30 PM


Visibility: 10 mi

Pressure: 29.95 "Hg

Humidity: 94%

Dew point: 48 °F

Location of L'vivLocation

Historic Weather in L'viv — Graph

°F

L'viv temperature yesterday

Maximum temperature yesterday: 59 °F (at 6:00 PM)
Minimum temperature yesterday: 46 °F (at 12:00 AM)
Average temperature yesterday: 51 °F

Past Weeks' High & Low Weather Summary

 TemperatureHumidityPressure
High79 °F (May 20, 2:30 PM)100% (May 14, 11:00 PM)30.18 "Hg (May 14, 11:00 PM)
Low36 °F (May 18, 6:00 AM)30% (May 18, 4:30 PM)29.62 "Hg (May 27, 1:00 AM)
Average55 °F78%29.95 "Hg
* Reported May 14 10:00 PM — May 29 10:30 PM, L'viv, Weather by CustomWeather, © 2015

Note: Actual official high and low records may vary slightly from our data, if they occured in-between our weather recording intervals... More about our weather records

Advertising

L'viv weather history for previous 24 hours

 ConditionsComfort  
Time TempWeatherWind HumidityBarometerVisibility
10:30 PM
Fri, May 29
50 °FClear.No wind94%29.95 "Hg10 mi
10:00 PM52 °FSunny.No wind88%29.95 "Hg10 mi
9:30 PM54 °FSunny.No wind82%29.95 "Hg10 mi
9:00 PM59 °FSunny.1 mph72%29.95 "Hg10 mi
8:30 PM61 °FSunny.3 mph59%29.95 "Hg10 mi
8:00 PM63 °FSunny.6 mph52%29.92 "Hg10 mi
7:30 PM63 °FSunny.8 mph52%29.95 "Hg10 mi
7:00 PM64 °FScattered clouds.6 mph49%29.95 "HgN/A
6:30 PM64 °FScattered clouds.8 mph46%29.95 "HgN/A
6:00 PM64 °FScattered clouds.10 mph46%29.95 "HgN/A
5:30 PM64 °FScattered clouds.8 mph46%29.95 "HgN/A
5:00 PM64 °FScattered clouds.8 mph49%29.95 "HgN/A
4:30 PM63 °FScattered clouds.8 mph49%29.95 "HgN/A
4:00 PM63 °FScattered clouds.6 mph49%29.95 "HgN/A
3:30 PM63 °FPartly sunny.8 mph49%29.95 "HgN/A
3:00 PM61 °FPartly sunny.6 mph52%29.95 "HgN/A
2:30 PM61 °FPartly sunny.8 mph52%29.95 "HgN/A
2:00 PM61 °FPartly sunny.8 mph55%29.98 "HgN/A
1:30 PM59 °FPartly sunny.6 mph51%29.98 "HgN/A
1:00 PM59 °FPartly sunny.6 mph59%29.98 "HgN/A
12:30 PM59 °FPartly sunny.8 mph51%29.98 "HgN/A
12:00 PM57 °FPartly sunny.8 mph55%29.98 "HgN/A
11:30 AM57 °FPartly sunny.6 mph55%29.98 "HgN/A
11:00 AM57 °FPartly sunny.6 mph51%29.98 "HgN/A
10:30 AM55 °FScattered clouds.6 mph63%29.98 "HgN/A
10:00 AM54 °FScattered clouds.6 mph72%29.98 "HgN/A
9:30 AM54 °FPassing clouds.3 mph72%29.98 "HgN/A
9:00 AM52 °FSunny.3 mph72%29.98 "HgN/A
8:30 AM50 °FSunny.6 mph76%29.98 "Hg10 mi
8:00 AM46 °FPassing clouds.6 mph93%29.98 "HgN/A
7:30 AM45 °FPassing clouds.3 mph93%29.98 "HgN/A
7:00 AM43 °FSunny.3 mph93%29.98 "Hg4 mi
6:30 AM39 °FFog.1 mph100%29.98 "Hg2 mi
6:00 AM37 °FFog.No wind100%29.98 "Hg2 mi
5:30 AM37 °FClear.No wind100%29.98 "Hg10 mi
5:00 AM37 °FClear.No wind93%29.98 "Hg10 mi
4:30 AM39 °FClear.No wind100%29.98 "Hg10 mi
4:00 AM39 °FClear.1 mph100%29.98 "Hg10 mi
3:30 AM39 °FClear.No wind100%29.98 "Hg10 mi
3:00 AM41 °FClear.No wind93%29.98 "Hg10 mi
2:30 AM41 °FClear.No wind93%29.98 "Hg10 mi
1:00 AM43 °FClear.No wind93%29.98 "Hg10 mi
12:30 AM45 °FClear.1 mph93%29.98 "Hg10 mi
12:00 AM46 °FClear.3 mph87%29.98 "Hg10 mi
11:30 PM
Thu, May 28
46 °FClear.3 mph87%29.98 "Hg10 mi
11:00 PM46 °FClear.3 mph87%29.98 "Hg10 mi
Weather by CustomWeather, © 2015

See weather overviewHow to use our weather pages